[[{"header":{"parameterUnit":"m.s-1","parameterCategory":1,"la1":30.2991,"la2":30.254,"lo1":-89.0895,"lo2":-89.0444,"dy":0.0017,"dx":0.0017,"nx":28,"ny":28,"refTime":"2025-08-17T09:00:00:Z","depth":0,"parameterNumber":2,"parameterNumberName":"U-component_of_WINDS"},"data":[0,0,0,0,0,0,0,0,0,0,0,0,0,0,0,0,0,0,0,0,0,0,0,0,0,0,0,0,0,0,0,0,0,0,0,0,0,0,0,0,0,0,0,0,0,0,0,0,0,0,0,0,0,0,0,0,0,0,-0.8909,-0.891,0,-0.8993,-0.8994,-0.8995,-0.9046,-0.9046,-0.9047,-0.9047,-0.9131,-0.9133,-0.9135,0,0,0,0,0,0,0,0,0,0,0,0,0,-0.8792,-0.8794,-0.8909,-0.891,-0.8911,-0.8993,-0.8994,-0.8995,-0.9046,-0.9046,-0.9047,-0.9047,-0.913,-0.9132,-0.9135,0,0,0,0,0,0,0,0,0,0,0,0,0,-0.8856,-0.8794,-0.8909,-0.8947,-0.8951,-0.8992,-0.8994,-0.8995,-0.9046,-0.9047,-0.9047,-0.9047,-0.9129,-0.9132,-0.9135,-0.9145,0,0,-0.9144,-0.9145,0,0,0,0,0,0,0,0,-0.8852,-0.886,-0.894,-0.8944,-0.8949,-0.901,-0.8983,-0.9045,-0.9046,-0.901,-0.9047,-0.9048,-0.909,-0.9096,-0.9111,-0.9149,-0.9153,-0.9144,-0.9146,-0.9147,-0.9148,0,0,0,0,0,0,0,-0.8848,-0.8857,-0.8942,-0.8941,-0.8947,-0.8959,-0.8968,-0.8995,-0.9046,-0.9013,-0.9017,-0.9026,-0.9092,-0.9108,-0.9113,-0.9154,-0.9144,-0.9147,-0.9149,-0.915,-0.9203,-0.9203,0,0,0,0,0,0,-0.8837,-0.8853,-0.8939,-0.8945,-0.8901,-0.896,-0.8971,-0.899,-0.9046,-0.9055,-0.9026,-0.9028,-0.9103,-0.911,-0.9116,-0.9131,-0.9147,-0.915,-0.9152,-0.9204,-0.9203,-0.9203,0,0,0,0,0,0,-0.8835,-0.8845,-0.8936,-0.89,-0.8912,-0.8962,-0.8982,-0.8991,-0.9007,-0.9056,-0.9065,-0.9032,-0.9103,-0.9112,-0.9138,-0.9135,-0.9152,-0.9154,-0.9204,-0.9204,-0.9203,-0.9161,0,0,0,0,0,0,-0.8831,-0.8843,-0.8848,-0.89,-0.8914,-0.8956,-0.8982,-0.8992,-0.9012,-0.9016,-0.9065,-0.9073,-0.9104,-0.9133,-0.914,-0.9139,-0.9157,-0.9205,-0.9204,-0.9203,-0.9163,-0.9159,-0.9156,0,0,0,0,0,-0.8827,-0.8833,-0.8848,-0.8858,-0.8921,-0.8956,-0.8964,-0.9001,-0.9011,-0.9016,-0.9048,-0.9071,-0.9134,-0.9135,-0.9144,-0.9143,-0.9205,-0.9204,-0.9203,-0.9164,-0.916,-0.9156,0,0,0,0,0,0,-0.878,-0.884,-0.8858,-0.8881,-0.8913,-0.8965,-0.8972,-0.8995,-0.9024,-0.9027,-0.907,-0.908,-0.9101,-0.9125,-0.9125,-0.9156,-0.9172,-0.9173,-0.9139,-0.9135,-0.9132,-0.9125,-0.9159,0,0,0,0,0,-0.8772,-0.8796,-0.8847,-0.8863,-0.8878,-0.8922,-0.8939,-0.8964,-0.8998,-0.9012,-0.9046,-0.9078,-0.9105,-0.9121,-0.9149,-0.9167,-0.9177,-0.9171,-0.9167,-0.9164,-0.9164,-0.9174,-0.9172,-0.92,-0.92,-0.92,0,0,-0.8756,-0.8792,-0.8805,-0.8854,-0.8882,-0.8905,-0.8933,-0.8956,-0.8974,-0.9016,-0.9041,-0.9067,-0.9106,-0.9127,-0.9138,-0.9147,-0.9159,-0.9163,-0.916,-0.9162,-0.9173,-0.917,-0.9168,-0.92,-0.92,-0.92,0,0,-0.8739,-0.8769,-0.8785,-0.8812,-0.8854,-0.8883,-0.8887,-0.8935,-0.8954,-0.8981,-0.9012,-0.9033,-0.9079,-0.9105,-0.9124,-0.9116,-0.9138,-0.9124,-0.9105,-0.9115,-0.9112,-0.911,-0.9107,-0.9105,-0.9124,-0.9124,-0.9124,0,-0.8714,-0.8751,-0.879,-0.8811,-0.8832,-0.8871,-0.8887,-0.8911,-0.8959,-0.8972,-0.8982,-0.904,-0.9069,-0.9096,-0.9094,-0.9109,-0.9113,-0.9118,-0.911,-0.9108,-0.9107,-0.9104,-0.9102,-0.9121,-0.9122,-0.9122,-0.9122,0,-0.8718,-0.8742,-0.875,-0.8796,-0.8817,-0.8835,-0.8876,-0.8893,-0.8916,-0.8944,-0.897,-0.9006,-0.9041,-0.905,-0.9073,-0.908,-0.9085,-0.9101,-0.9119,-0.9101,-0.9099,-0.9098,-0.9118,-0.9119,-0.912,-0.912,0,0,-0.8673,-0.874,-0.8742,-0.8763,-0.8812,-0.8831,-0.8851,-0.8886,-0.8899,-0.8931,-0.8947,-0.8985,-0.9001,-0.9022,-0.9048,-0.9057,-0.9047,-0.9073,-0.9074,-0.9066,-0.9056,-0.9043,-0.9041,-0.9062,-0.9062,-0.9062,-0.9053,0,-0.8663,-0.8701,-0.8736,-0.8761,-0.8783,-0.8821,-0.8838,-0.8869,-0.8895,-0.8918,-0.8947,-0.8973,-0.8992,-0.9005,-0.9015,-0.9046,-0.9045,-0.9047,-0.9077,-0.9078,-0.9066,-0.904,-0.9026,-0.9015,-0.9052,-0.9052,-0.9052,0,-0.8656,-0.8686,-0.8713,-0.8759,-0.877,-0.8784,-0.8818,-0.884,-0.8876,-0.8894,-0.8918,-0.8945,-0.8967,-0.8982,-0.9012,-0.9012,-0.9027,-0.9044,-0.9044,-0.9048,-0.9063,-0.9042,-0.9013,-0.901,-0.9051,-0.9051,-0.9051,0,-0.862,-0.8667,-0.8689,-0.8706,-0.876,-0.8769,-0.8792,-0.8829,-0.8847,-0.8877,-0.8889,-0.892,-0.8937,-0.8961,-0.8996,-0.9004,-0.9021,-0.904,-0.9037,-0.9036,-0.9038,-0.9037,-0.901,-0.9049,-0.9049,-0.9049,-0.9049,0,-0.8604,-0.8619,-0.8674,-0.8687,-0.8704,-0.8745,-0.876,-0.8787,-0.8818,-0.8837,-0.8871,-0.8888,-0.8933,-0.8955,-0.8982,-0.9002,-0.901,-0.9025,-0.9032,-0.9021,-0.9019,-0.9031,-0.9032,-0.9048,-0.9048,-0.9048,-0.9049,0,-0.8567,-0.8604,-0.863,-0.8679,-0.8692,-0.8702,-0.8744,-0.8758,-0.8786,-0.8809,-0.8817,-0.8861,-0.8888,-0.8925,-0.8964,-0.8982,-0.8998,-0.901,-0.8986,-0.899,-0.8985,-0.8984,-0.8963,-0.8962,-0.9002,-0.9001,-0.9001,0,-0.8554,-0.8566,-0.8616,-0.8631,-0.8653,-0.8677,-0.8696,-0.8735,-0.8753,-0.8795,-0.8803,-0.8833,-0.8859,-0.8901,-0.8936,-0.8966,-0.8977,-0.8968,-0.8982,-0.8971,-0.8976,-0.8975,-0.8976,-0.8964,-0.8964,-0.8963,-0.8963,0,-0.8527,-0.8545,-0.8571,-0.8603,-0.8624,-0.8651,-0.868,-0.869,-0.8736,-0.8754,-0.8783,-0.8803,-0.8843,-0.8871,-0.8906,-0.8928,-0.8953,-0.8958,-0.8959,-0.8948,-0.8933,-0.894,-0.8976,-0.8958,-0.8959,-0.8959,-0.8959,-0.8959,-0.8501,-0.8513,-0.855,-0.8577,-0.8603,-0.8629,-0.8644,-0.8674,-0.8699,-0.8734,-0.8756,-0.8783,-0.8818,-0.8866,-0.8888,-0.8909,-0.8919,-0.892,-0.892,-0.892,-0.8916,-0.893,-0.8916,-0.8916,-0.8916,-0.8916,-0.8916,0,-0.8475,-0.85,-0.8525,-0.8564,-0.8585,-0.8607,-0.864,-0.8656,-0.8679,-0.871,-0.8735,-0.8767,-0.8795,-0.8832,-0.8862,-0.8872,-0.8884,-0.8879,-0.8878,-0.8883,-0.8906,-0.8902,-0.8869,-0.8869,-0.8869,-0.8869,-0.8869,-0.8869,-0.8464,-0.8485,-0.8507,-0.8541,-0.8566,-0.8593,-0.861,-0.8634,-0.8658,-0.8692,-0.8716,-0.874,-0.8773,-0.8806,-0.8832,-0.8843,-0.8852,-0.8843,-0.8856,-0.8877,-0.8881,-0.8885,-0.8882,-0.8845,-0.8845,-0.8831,-0.8831,-0.8831]},{"header":{"parameterUnit":"m.s-1","parameterCategory":1,"la1":30.2991,"la2":30.254,"lo1":-89.0895,"lo2":-89.0444,"dy":0.0017,"dx":0.0017,"nx":28,"ny":28,"refTime":"2025-08-17T09:00:00:Z","depth":0,"parameterNumber":3,"parameterNumberName":"V-component_of_WINDS"},"data":[0,0,0,0,0,0,0,0,0,0,0,0,0,0,0,0,0,0,0,0,0,0,0,0,0,0,0,0,0,0,0,0,0,0,0,0,0,0,0,0,0,0,0,0,0,0,0,0,0,0,0,0,0,0,0,0,0,0,-2.2999,-2.3,0,-2.3081,-2.3081,-2.3082,-2.3086,-2.3085,-2.3084,-2.3083,-2.3167,-2.317,-2.3173,0,0,0,0,0,0,0,0,0,0,0,0,0,-2.2848,-2.2851,-2.2999,-2.3,-2.3001,-2.308,-2.3082,-2.3083,-2.3086,-2.3085,-2.3084,-2.3083,-2.3166,-2.317,-2.3174,0,0,0,0,0,0,0,0,0,0,0,0,0,-2.292,-2.2852,-2.2999,-2.3013,-2.3015,-2.308,-2.3082,-2.3083,-2.3086,-2.3085,-2.3083,-2.3082,-2.3165,-2.3169,-2.3174,-2.3232,0,0,-2.3189,-2.3191,0,0,0,0,0,0,0,0,-2.2916,-2.2925,-2.301,-2.3012,-2.3014,-2.3072,-2.3059,-2.3133,-2.3087,-2.3059,-2.3083,-2.3081,-2.3137,-2.3144,-2.3162,-2.3236,-2.324,-2.3189,-2.3192,-2.3194,-2.3195,0,0,0,0,0,0,0,-2.2911,-2.2922,-2.3031,-2.3011,-2.3014,-2.3015,-2.3023,-2.3073,-2.3105,-2.3061,-2.3062,-2.3071,-2.3138,-2.3157,-2.3164,-2.3241,-2.3189,-2.3193,-2.3196,-2.3198,-2.3366,-2.3368,0,0,0,0,0,0,-2.2903,-2.2918,-2.3029,-2.3034,-2.296,-2.3019,-2.3028,-2.3055,-2.3104,-2.3111,-2.3072,-2.3071,-2.315,-2.3158,-2.3167,-2.3238,-2.3194,-2.3198,-2.3201,-2.3365,-2.3367,-2.3369,0,0,0,0,0,0,-2.29,-2.2913,-2.3026,-2.2976,-2.299,-2.3023,-2.3052,-2.3057,-2.3077,-2.3113,-2.3119,-2.3087,-2.3149,-2.316,-2.3216,-2.324,-2.32,-2.3205,-2.3363,-2.3365,-2.3368,-2.3379,0,0,0,0,0,0,-2.2896,-2.2912,-2.2934,-2.2977,-2.2993,-2.3073,-2.3054,-2.306,-2.3085,-2.3084,-2.3128,-2.3134,-2.3149,-2.3209,-2.322,-2.3246,-2.3208,-2.3361,-2.3364,-2.3367,-2.3377,-2.3382,-2.3386,0,0,0,0,0,-2.289,-2.2934,-2.2935,-2.2948,-2.3021,-2.3074,-2.3084,-2.31,-2.3087,-2.3109,-2.3133,-2.3132,-2.3236,-2.3214,-2.3228,-2.3255,-2.3359,-2.3363,-2.3367,-2.3375,-2.3381,-2.3386,0,0,0,0,0,0,-2.2894,-2.294,-2.2941,-2.3001,-2.3033,-2.3075,-2.3103,-2.3106,-2.3144,-2.3141,-2.316,-2.317,-2.3225,-2.3246,-2.3221,-2.3314,-2.3296,-2.3303,-2.3298,-2.3304,-2.3309,-2.3302,-2.3212,0,0,0,0,0,-2.2902,-2.294,-2.2979,-2.3027,-2.3044,-2.3071,-2.3095,-2.3104,-2.3139,-2.3153,-2.318,-2.3214,-2.3255,-2.3281,-2.332,-2.3381,-2.339,-2.3406,-2.3411,-2.3414,-2.342,-2.3453,-2.346,-2.3381,-2.3381,-2.3381,0,0,-2.2918,-2.2948,-2.2971,-2.3029,-2.3056,-2.3095,-2.3083,-2.3125,-2.3155,-2.316,-2.3213,-2.3235,-2.3274,-2.3332,-2.3359,-2.3351,-2.3444,-2.3419,-2.3422,-2.3425,-2.3457,-2.3465,-2.3471,-2.3383,-2.3383,-2.3383,0,0,-2.2968,-2.2995,-2.3038,-2.3065,-2.3105,-2.3123,-2.3133,-2.3174,-2.3188,-2.3243,-2.3247,-2.3283,-2.3352,-2.338,-2.3403,-2.3463,-2.3464,-2.3476,-2.35,-2.3532,-2.3538,-2.3544,-2.3564,-2.3572,-2.3481,-2.3481,-2.3481,0,-2.2983,-2.3043,-2.306,-2.3102,-2.3127,-2.3134,-2.3177,-2.3203,-2.3254,-2.3271,-2.3262,-2.3348,-2.3375,-2.344,-2.3454,-2.3473,-2.3486,-2.347,-2.3536,-2.3542,-2.3547,-2.3567,-2.3575,-2.3482,-2.3482,-2.3482,-2.3482,0,-2.3059,-2.3101,-2.3131,-2.3179,-2.3208,-2.3251,-2.3274,-2.3302,-2.3309,-2.3328,-2.3383,-2.3416,-2.3461,-2.3478,-2.3486,-2.3543,-2.3537,-2.3532,-2.3514,-2.3555,-2.3574,-2.3582,-2.3484,-2.3483,-2.3483,-2.3483,0,0,-2.3112,-2.317,-2.3181,-2.3203,-2.3248,-2.328,-2.3324,-2.3368,-2.3391,-2.3426,-2.3463,-2.3521,-2.3516,-2.3543,-2.3554,-2.3582,-2.3627,-2.3574,-2.3575,-2.3581,-2.3692,-2.3695,-2.3704,-2.3629,-2.3631,-2.3632,-2.3688,0,-2.3166,-2.3243,-2.3259,-2.3326,-2.3364,-2.3371,-2.3409,-2.3441,-2.346,-2.3495,-2.3517,-2.3557,-2.3548,-2.3564,-2.3592,-2.3616,-2.365,-2.3612,-2.3663,-2.3664,-2.3651,-2.3714,-2.3717,-2.3769,-2.3696,-2.3697,-2.3698,0,-2.3239,-2.3275,-2.3345,-2.3385,-2.3401,-2.3435,-2.3477,-2.3511,-2.3548,-2.3559,-2.3589,-2.3597,-2.3643,-2.3624,-2.3687,-2.3661,-2.3683,-2.3698,-2.3701,-2.3705,-2.3683,-2.3719,-2.3786,-2.3793,-2.371,-2.371,-2.3709,0,-2.3269,-2.3336,-2.3386,-2.3405,-2.3453,-2.3476,-2.3498,-2.3533,-2.3558,-2.3595,-2.3612,-2.3654,-2.3677,-2.3709,-2.3729,-2.3714,-2.379,-2.3773,-2.3801,-2.3801,-2.3816,-2.3814,-2.3886,-2.3832,-2.3832,-2.3832,-2.3832,0,-2.3326,-2.3368,-2.34,-2.3431,-2.3478,-2.3498,-2.3544,-2.3566,-2.3597,-2.3632,-2.3642,-2.3674,-2.3699,-2.3736,-2.3752,-2.3801,-2.3812,-2.3822,-2.3826,-2.3821,-2.3819,-2.3834,-2.3831,-2.3834,-2.3834,-2.3833,-2.3833,0,-2.3367,-2.339,-2.3445,-2.3487,-2.3498,-2.3531,-2.3567,-2.3597,-2.3617,-2.3661,-2.3672,-2.3703,-2.3747,-2.377,-2.3825,-2.3835,-2.389,-2.3893,-2.3878,-2.3879,-2.3905,-2.3902,-2.3988,-2.4,-2.3939,-2.394,-2.394,0,-2.3402,-2.3434,-2.3479,-2.3503,-2.3524,-2.3563,-2.3589,-2.361,-2.3637,-2.3681,-2.3706,-2.375,-2.3786,-2.3855,-2.3882,-2.3924,-2.3927,-2.3954,-2.3933,-2.3927,-2.3926,-2.3923,-2.3926,-2.3957,-2.3958,-2.3958,-2.3959,0,-2.3459,-2.3469,-2.3506,-2.3548,-2.3578,-2.3612,-2.3645,-2.3664,-2.3691,-2.372,-2.3765,-2.3793,-2.3848,-2.3891,-2.3935,-2.3958,-2.3963,-2.3965,-2.3974,-2.3968,-2.3958,-2.3963,-2.3886,-2.3963,-2.3962,-2.3962,-2.3962,-2.3962,-2.3497,-2.3526,-2.3562,-2.3603,-2.363,-2.3661,-2.3691,-2.3715,-2.3752,-2.3798,-2.3809,-2.3856,-2.3892,-2.3951,-2.3975,-2.4012,-2.4007,-2.4019,-2.4022,-2.4024,-2.4025,-2.3953,-2.402,-2.402,-2.402,-2.402,-2.402,0,-2.3555,-2.3578,-2.3616,-2.3662,-2.3694,-2.3696,-2.3733,-2.376,-2.3801,-2.3834,-2.3869,-2.392,-2.3962,-2.3993,-2.4036,-2.406,-2.4063,-2.4071,-2.4068,-2.4073,-2.4028,-2.4015,-2.4067,-2.4067,-2.4067,-2.4067,-2.4067,-2.4067,-2.3588,-2.3637,-2.3651,-2.3714,-2.3738,-2.3783,-2.3804,-2.3832,-2.3859,-2.3915,-2.395,-2.397,-2.4003,-2.4048,-2.4087,-2.4095,-2.411,-2.4117,-2.4125,-2.4082,-2.4077,-2.4072,-2.406,-2.4121,-2.4121,-2.4168,-2.4168,-2.4168]}]]